Regional Weather Roundup
Issued by NWS

Home | Current Version | Previous Version | Graphics & Text | Print | Product List | Glossary On
Versions: 1 2 3 4 5 6 7 8 9 10 11 12 13 14 15 16 17 18 19 20 21 22 23 24 25 26 27 28 29 30 31 32 33 34 35 36 37 38 39 40 41 42 43 44 45 46 47 48 49 50
000
ASUS43 KMPX 191910
RWRMN
WEATHER ROUNDUP FOR MINNESOTA
NATIONAL WEATHER SERVICE TWIN CITIES/CHANHASSEN MN
100 PM CST THU JAN 19 2017


NOTE: "FAIR" INDICATES FEW OR NO CLOUDS BELOW 12,000 FEET WITH NO
SIGNIFICANT WEATHER AND/OR OBSTRUCTIONS TO VISIBILITY. N/A MEANS
CURRENT SKY AND/OR WEATHER CONDITIONS ARE NOT AVAILABLE.

MNZ060>063-068>070-192000-
   Twin Cities Metro

CITY           SKY/WX    TMP DP  RH WIND       PRES   REMARKS
TWIN CITIES    MOSUNNY   35  31  85 SE9       29.76F WCI  28
ST PAUL        CLOUDY    33  33 100 SE12      29.79F FOG     WCI  24
CRYSTAL        SUNNY     39  31  72 SE9       29.74F
BLAINE         SUNNY     43  36  75 SE8       29.75F
LAKEVILLE      MOSUNNY   34  34 100 SE7       29.77F WCI  28
EDEN PRAIRIE   SUNNY     39  33  79 S12       29.75F
SOUTH ST PAUL  CLOUDY    34  33  96 SE8       29.78F FOG     WCI  27
LAKE ELMO      CLOUDY    34  32  93 S10       29.78F FOG     WCI  26
$$
MNZ001>005-007-008-013>017-022>024-027-028-192000-
   Northwest Minnesota

CITY           SKY/WX    TMP DP  RH WIND       PRES   REMARKS
BEMIDJI        PTSUNNY   37  34  90 S7        29.62S
HALLOCK        CLOUDY    30  28  93 S22       29.54F FOG     WCI  17
ROSEAU         CLOUDY    32  27  80 S14       29.57S HAZE    WCI  22
WARROAD        SUNNY     37  32  81 S7        29.57F
THIEF RVR FALL SUNNY     38  33  82 S14       29.58F
CROOKSTON      CLOUDY    34  32  93 S18       29.58F WCI  23
FOSSTON        SUNNY     39  32  75 S10       29.59F
DETROIT LAKES  SUNNY     37  34  87 SE10      29.62F
MOORHEAD       SUNNY     36  32  87 S15       29.60F
PARK RAPIDS    SUNNY     38  34  85 S8        29.63S
MAHNOMEN       FAIR      39  35  83 S9        29.59F
$$
MNZ006-009>011-018-025>026-192000-
   North Central Minnesota

CITY           SKY/WX    TMP DP  RH WIND       PRES   REMARKS
BAUDETTE       CLOUDY    33  30  88 S10       29.59F WCI  25
FLAG ISLAND    CLOUDY    30  27  86 S17       29.56F FOG     WCI  18
INTL FALLS     CLOUDY    36  31  82 S10       29.63F
WASKISH        CLOUDY    37  34  87 SW7       29.62F
BIG FORK       CLOUDY    37  34  87 S7        29.65F FOG
LONGVILLE      CLOUDY    36  36 100 SE6       29.66S FOG
GRAND RAPIDS   CLOUDY    36  35  96 S6        29.69S FOG
CRANE LAKE     PTSUNNY   36  32  87 S7        29.67F
ORR            CLOUDY    36  30  80 S9        29.63F
COOK           CLOUDY    37  34  87 S8        29.67S
WALKER         CLOUDY    38  35  91 S7        29.64S
$$
MNZ012-019>021-037-192000-
   Northeast Minnesota

CITY           SKY/WX    TMP DP  RH WIND       PRES   REMARKS
DULUTH         MOSUNNY   42  34  73 S7        29.69F
ELY            MOSUNNY   37  34  87 SW10      29.67F
HIBBING        FOG       34  34 100 S6        29.67F VSB 1/2 WCI  29
EVELETH        CLOUDY    36  36  99 S3        29.69F FOG
DULUTH HARBOR  SUNNY     37  34  87 CALM      29.73F
TWO HARBORS    SUNNY     45  36  70 SW9       29.70F
SILVER BAY     CLOUDY    37  36  93 SW3       29.71S FOG
G MARAIS ARPRT SNOW      30  28  93 S5        29.71F VSB<1/4 WCI  25
$$
MNZ029>031-032-039>041-046>048-054>057-064-192000-
   West Central Minnesota

CITY           SKY/WX    TMP DP  RH WIND       PRES   REMARKS
FERGUS FALLS   SUNNY     37  36  93 S9        29.67S
WHEATON        SUNNY     43  39  87 SE15      29.63F
MORRIS         SUNNY     37  34  87 SE16      29.63F
ALEXANDRIA     SUNNY     39  35  86 S14       29.65F
ELBOW LAKE     FAIR      36  33  90 SE14      29.63F FOG
WADENA         SUNNY     39  34  81 SE6       29.64F
GLENWOOD       SUNNY     37  34  87 S15       29.66F
APPLETON       SUNNY     41  34  75 S13       29.64F
BENSON         SUNNY     39  32  75 S15         N/A
ORTONVILLE     SUNNY     37  34  87 SE5       29.62F
MADISON        SUNNY     41  37  87 S14       29.63F
WILLMAR        FAIR      37  36  93 SE12      29.69F FOG
$$
MNZ033>034-036-042>043-049>051-058-059-192000-
   Central Minnesota

CITY           SKY/WX    TMP DP  RH WIND       PRES   REMARKS
ST CLOUD       SUNNY     39  34  82 SE10      29.70F
SAUK CENTRE    FAIR      36  32  87 SE15      29.67F
PAYNESVILLE    SUNNY     37  37 100 SE10      29.70F FOG
AITKIN         SUNNY     41  32  70 S6        29.67S
PINE RIVER     SUNNY     37  37 100 SE7       29.70F
BRAINERD       SUNNY     39  34  82 S10       29.67F
STAPLES        SUNNY     39  34  81 CALM      29.66S
LONG PRAIRIE   FAIR      37  32  81 SE14      29.67F
LITTLE FALLS   SUNNY     39  32  75 SE10      29.69F
LITCHFIELD     CLOUDY    36  34  93 S6        29.71F FOG
BUFFALO        SUNNY     41  33  73 SE7       29.73F
MAPLE LAKE     SUNNY     41  35  79 S7        29.73F
HUTCHINSON     CLOUDY    34  34  99 SE7       29.73F FOG     WCI  28
$$
MNZ037-044-045-052-053-192000-
   East Central Minnesota

CITY           SKY/WX    TMP DP  RH WIND       PRES   REMARKS
PRINCETON      SUNNY     45  36  70 S8        29.72F
MORA           SUNNY     39  32  75 S6        29.74F
CAMBRIDGE      SUNNY     43  34  70 S10       29.71F
RUSH CITY      SUNNY     41  32  70 S7        29.73F
MOOSE LAKE     SUNNY     43  32  65 SW8       29.70F
HINCKLEY       FAIR      41  34  75 S5        29.73F
CLOQUET        SUNNY     43  32  65 S8        29.69F
MCGREGOR       PTSUNNY   36  36 100 SE8       29.69F
$$
MNZ071>073-080-081-089-090-097-098-192000-
   Southwest Minnesota

CITY           SKY/WX    TMP DP  RH WIND       PRES   REMARKS
MONTEVIDEO     SUNNY     43  36  75 S10G16    29.67F
GRANITE FALLS  SUNNY     40  36  84 SE10      29.69F FOG
CANBY          PTSUNNY   40  37  89 S10G18    29.64F
MARSHALL       CLOUDY    39  37  92 S18       29.66F FOG
REDWOOD FALLS  SUNNY     38  34  85 SE14      29.69F FOG
OLIVIA         MOSUNNY   36  32  87 SE15      29.69F FOG
PIPESTONE      SNOW      37  36  93 S8        29.65F VSB<1/4
WINDOM         CLOUDY    39  37  93 S9        29.70F FOG
WORTHINGTON    FOG       36  36 100 S12       29.68F VSB 1/2
JACKSON        CLOUDY    36  34  93 S12       29.71F FOG
TRACY          CLOUDY    39  38  94 S13G20    29.67F FOG
SLAYTON        FOG       37  37  99 S14G23    29.68F VSB 3/4
$$
MNZ065>067-074>077-082>085-091>093-192000-
   South Central Minnesota

CITY           SKY/WX    TMP DP  RH WIND       PRES   REMARKS
MANKATO        MOSUNNY   38  33  82 S9        29.76F
NEW ULM        SUNNY     37  36  93 S13       29.73
ST JAMES       CLOUDY    37  36  93 SE10      29.74F
FAIRMONT       CLOUDY    36  34  92 S12       29.74F FOG
GLENCOE        CLOUDY    36  35  98 S7        29.73F FOG
FARIBAULT      CLOUDY    37  34  87 S8        29.78S
OWATONNA       CLOUDY    36  30  80 SE13      29.78S
WASECA         CLOUDY    34  32  93 SE13      29.78F WCI  25
ALBERT LEA     CLOUDY    34  34 100 SE13      29.78F FOG     WCI  25
$$
MNZ078>079-086>088-094>096-192000-
   Southeast Minnesota

CITY           SKY/WX    TMP DP  RH WIND       PRES   REMARKS
ROCHESTER      CLOUDY    32  32 100 S10       29.80F WCI  24
RED WING       CLOUDY    34  30  86 SE6       29.79F FOG     WCI  29
STANTON        CLOUDY    36  32  85 S6        29.77F
DODGE CENTER   PTSUNNY   32  32 100 S12       29.79S FOG     WCI  23
WINONA         CLOUDY    36  32  87 SE8       29.85S
AUSTIN         CLOUDY    32  30  93 SE6       29.80F FOG     WCI  26
PRESTON        CLOUDY    32  32  99 S9        29.82S FOG     WCI  24
$$
ABBREVIATIONS USED IN REMARKS
   TC - TEMPERATURES IN CELSIUS
  WCI - WIND CHILL INDEX
   HX - HEAT INDEX
  VSB - VISIBILITY
$$



USA.gov is the U.S. government's official web portal to all federal, state and local government web resources and services.